Location: Balsareny
(41.8670°N, 1.8830°E)
Time: 00:25:31
(UTC+01:00)

ISS - Visible Passes

Search period start: 03 December 2023 00:00
Search period end: 13 December 2023 00:00
Orbit: 415 x 417 km, 51.6° (Epoch: 02 December)

Date Brightness Start Highest point End Pass type
(mag) Time Alt. Az. Time Alt. Az. Time Alt. Az.
03 Dec -3.3 18:16:42 10° NW 18:19:55 43° NNE 18:22:31 14° E visible
03 Dec -1.1 19:53:43 10° WNW 19:55:28 21° WSW 19:55:28 21° WSW visible
04 Dec -2.6 19:04:56 10° WNW 19:08:08 43° SW 19:09:50 23° SSE visible
05 Dec -3.6 18:16:17 10° WNW 18:19:39 77° SW 18:22:58 10° SE visible
06 Dec -0.7 19:05:20 10° W 19:07:26 16° SW 19:09:33 10° S visible
07 Dec -1.4 18:16:06 10° WNW 18:18:59 27° SW 18:21:51 10° SSE visible
